User: anonymous
Location: Unspecified
(0.0000°N, 0.0000°E)
Time: 08:43:48
(UTC+00:00)
Language:

PW SAT - Orbit

View from above orbital plane
View from above orbital plane
View from above satellite
View from above satellite

Ground track
Ground track

The orbit data is extracted from the following two-line orbital elements,

1 38083U 12006G   14293.27607902  .01109472  55939-3  22290-2 0  7233
2 38083 069.4201 343.6017 0087259 154.2063 206.3532 15.92796418143294
Epoch (UTC): 20 October 2014 06:37:33
Eccentricity: 0.0087259
inclination: 69.4201°
perigee height: 236 km
apogee height: 352 km
right ascension of ascending node: 343.6017°
argument of perigee: 154.2063°
revolutions per day: 15.92796418
mean anomaly at epoch: 206.3532°
orbit number at epoch: 14329

The dashed part of the orbit path shows where the satellite is in the earth's shadow,  

DLR